Zurück zum Katalog

STARLINK-30844

AktivKommunikationVLEO
NORAD 58403·PAYLOAD·🇺🇸 United States

Gestartet Nov 22, 2023 von Cape Canaveral Space Force Station

Loading…

Nächste Überflüge (nächste 24 Stunden)

TLE

AktuellSource: CelesTrak SupGP

Epoche: Sep 15, 2026, 01:59 UTC

1 58403C 23180B   26258.08312500 -.00053221  00000+0 -19269-2 0  2587
2 58403  43.0042  63.2556 0002199 270.5977 239.7630 15.27617320    15

Verfolge STARLINK-30844 in Echtzeit mit AllMySat

Download on the App Store